[[{"header":{"parameterUnit":"m.s-1","parameterCategory":1,"la1":30.2992,"la2":30.254,"lo1":-89.0895,"lo2":-89.0443,"dy":0.0025,"dx":0.0025,"nx":19,"ny":19,"refTime":"2026-03-08T21:00:00:Z","depth":0,"parameterNumber":2,"parameterNumberName":"U-component_of_WINDS"},"data":[0,0,0,-1.4848,-1.4848,-1.4832,-1.4832,-1.482,-1.482,0,0,0,0,0,0,0,0,0,0,0,-1.4857,-1.4857,-1.4848,-1.4848,-1.4832,-1.4832,-1.482,-1.482,0,0,0,0,0,0,0,0,0,0,0,-1.4857,-1.4857,-1.4857,-1.4848,-1.4832,-1.4832,-1.482,-1.4829,0,0,0,0,0,0,0,0,0,0,-1.4843,-1.4856,-1.4857,-1.4857,-1.4848,-1.4832,-1.4832,-1.4829,-1.4828,-1.4831,0,-1.4834,0,-1.4827,-1.482,-1.482,0,0,0,-1.4844,-1.4857,-1.4848,-1.4857,-1.4847,-1.4832,-1.4838,-1.4829,-1.4828,-1.483,-1.4834,-1.4833,-1.4827,-1.482,-1.482,-1.4846,-1.4846,0,0,-1.4845,-1.4857,-1.4849,-1.4848,-1.4851,-1.4839,-1.4838,-1.4828,-1.4833,-1.4834,-1.4833,-1.4827,-1.482,-1.482,-1.4845,-1.4846,0,0,0,-1.485,-1.4858,-1.4849,-1.4849,-1.4845,-1.4838,-1.4837,-1.4833,-1.483,-1.4832,-1.4826,-1.482,-1.482,-1.4845,-1.4845,-1.4871,0,0,0,-1.485,-1.486,-1.485,-1.4857,-1.4846,-1.4839,-1.4843,-1.4831,-1.4829,-1.4826,-1.482,-1.482,-1.4845,-1.4845,-1.487,-1.4881,0,0,0,-1.4857,-1.4861,-1.4861,-1.4858,-1.4852,-1.4839,-1.4835,-1.483,-1.4826,-1.482,-1.482,-1.4844,-1.4845,-1.4868,-1.4878,-1.489,0,0,0,-1.4867,-1.4883,-1.4861,-1.4878,-1.4852,-1.4856,-1.4835,-1.4837,-1.4835,-1.482,-1.4845,-1.4845,-1.4868,-1.4877,-1.4889,-1.4901,-1.4908,0,0,-1.4894,-1.4887,-1.4896,-1.4876,-1.4887,-1.4857,-1.4872,-1.4858,-1.4847,-1.4847,-1.4847,-1.487,-1.4878,-1.489,-1.4944,-1.495,0,0,0,-1.4909,-1.4915,-1.4915,-1.4915,-1.4906,-1.4899,-1.4882,-1.4878,-1.4877,-1.4849,-1.4878,-1.4883,-1.4889,-1.4894,-1.4899,-1.4903,-1.4849,-1.4849,-1.4849,-1.4963,-1.4949,-1.4962,-1.4946,-1.4946,-1.493,-1.4928,-1.4919,-1.4903,-1.4911,-1.491,-1.4945,-1.4951,-1.4955,-1.4959,-1.4917,-1.4917,-1.4917,-1.4917,-1.5001,-1.5007,-1.4988,-1.4994,-1.4979,-1.4984,-1.497,-1.4959,-1.4961,-1.4944,-1.4949,-1.4929,-1.4961,-1.4964,-1.4919,-1.4918,-1.4918,-1.4918,-1.4918,-1.5034,-1.5034,-1.5029,-1.5027,-1.5028,-1.5012,-1.5015,-1.5001,-1.4988,-1.4993,-1.499,-1.499,-1.4986,-1.4993,-1.4994,-1.4994,-1.4994,-1.4994,-1.4994,-1.5069,-1.5062,-1.5067,-1.506,-1.5059,-1.5055,-1.5041,-1.5038,-1.5032,-1.5022,-1.5022,-1.5005,-1.4968,-1.4957,-1.4996,-1.4995,-1.4995,-1.4995,-1.4995,-1.5109,-1.5098,-1.5105,-1.5104,-1.5095,-1.5097,-1.508,-1.5078,-1.5074,-1.5076,-1.506,-1.5035,-1.5026,-1.5022,-1.5014,-1.5064,-1.5064,-1.5064,-1.5064,-1.5135,-1.5131,-1.5135,-1.5133,-1.5131,-1.5117,-1.5126,-1.5116,-1.5103,-1.51,-1.5092,-1.508,-1.5077,-1.5069,-1.5065,-1.5056,-1.5116,-1.5116,-1.5116,-1.5159,-1.5154,-1.5163,-1.5151,-1.5144,-1.5139,-1.5147,-1.5146,-1.513,-1.5118,-1.5097,-1.5095,-1.5076,-1.5071,-1.5056,-1.5048,-1.5033,0,0]},{"header":{"parameterUnit":"m.s-1","parameterCategory":1,"la1":30.2992,"la2":30.254,"lo1":-89.0895,"lo2":-89.0443,"dy":0.0025,"dx":0.0025,"nx":19,"ny":19,"refTime":"2026-03-08T21:00:00:Z","depth":0,"parameterNumber":3,"parameterNumberName":"V-component_of_WINDS"},"data":[0,0,0,3.1296,3.1296,3.1297,3.1297,3.1278,3.1277,0,0,0,0,0,0,0,0,0,0,0,3.1285,3.1284,3.1296,3.1296,3.1297,3.1297,3.1278,3.1277,0,0,0,0,0,0,0,0,0,0,0,3.1285,3.1285,3.1284,3.1296,3.1297,3.1297,3.1278,3.1284,0,0,0,0,0,0,0,0,0,0,3.1286,3.1266,3.1285,3.1284,3.1296,3.1297,3.1297,3.1284,3.1283,3.1269,0,3.1255,0,3.1266,3.1275,3.1275,0,0,0,3.1303,3.1266,3.1277,3.1284,3.1296,3.1297,3.1298,3.1284,3.1283,3.1268,3.1255,3.1255,3.1266,3.1275,3.1275,3.1175,3.1174,0,0,3.1303,3.1278,3.1278,3.1276,3.1277,3.1298,3.1298,3.1284,3.1267,3.1255,3.1255,3.1266,3.1275,3.1274,3.1175,3.1174,0,0,0,3.1298,3.1278,3.1289,3.1276,3.1278,3.1298,3.1298,3.1268,3.1274,3.1255,3.1265,3.1274,3.1274,3.1176,3.1175,3.1114,0,0,0,3.1298,3.1275,3.1289,3.1274,3.1278,3.1273,3.1282,3.1275,3.1274,3.1265,3.1274,3.1274,3.1177,3.1176,3.1117,3.1088,0,0,0,3.1288,3.1274,3.1271,3.1273,3.1273,3.1274,3.128,3.1275,3.128,3.1275,3.1273,3.1178,3.1176,3.1121,3.1093,3.1056,0,0,0,3.127,3.1213,3.127,3.1211,3.1273,3.1237,3.128,3.1254,3.1242,3.1274,3.1177,3.1175,3.1122,3.1096,3.1059,3.102,3.1001,0,0,3.1185,3.1202,3.117,3.122,3.1169,3.1239,3.1178,3.1188,3.1208,3.1184,3.1182,3.1116,3.1093,3.1056,3.0906,3.0892,0,0,0,3.1135,3.1111,3.1103,3.1092,3.1102,3.1107,3.113,3.1134,3.1116,3.1192,3.1093,3.108,3.1059,3.1042,3.1029,3.1013,3.1166,3.1166,3.1166,3.0977,3.101,3.0959,3.0992,3.0981,3.1008,3.1002,3.1012,3.1044,3.1021,3.1014,3.0919,3.0898,3.0888,3.0871,3.0996,3.0996,3.0995,3.0995,3.0856,3.0828,3.0878,3.0846,3.088,3.0853,3.0877,3.0902,3.0881,3.0926,3.091,3.0956,3.0871,3.0858,3.0991,3.0992,3.0992,3.0993,3.0993,3.0757,3.0749,3.0758,3.0749,3.0738,3.0773,3.0752,3.0783,3.0812,3.0795,3.0792,3.0793,3.0798,3.0792,3.0792,3.0791,3.0791,3.0791,3.0791,3.0649,3.0662,3.0642,3.065,3.0649,3.0652,3.068,3.068,3.0686,3.0711,3.0711,3.0746,3.0858,3.0885,3.0786,3.0786,3.0787,3.0788,3.0788,3.0513,3.0551,3.0519,3.0519,3.0532,3.052,3.0562,3.0558,3.0562,3.0551,3.0592,3.0669,3.0687,3.0698,3.072,3.0585,3.0585,3.0585,3.0585,3.0429,3.0444,3.0421,3.0418,3.0419,3.0455,3.0419,3.0441,3.0469,3.0474,3.0498,3.0531,3.054,3.0554,3.0567,3.0589,3.0423,3.0422,3.0422,3.0348,3.0364,3.0328,3.0359,3.0373,3.0384,3.0351,3.0345,3.0384,3.0416,3.0478,3.0485,3.0539,3.0555,3.0586,3.0606,3.0646,0,0]}]]